Rome, GA

5:00 PM EST on November 14, 2019 (GMT -0500)
Russell

Weather History for KRMG - September, 2019

Change the Weather History Date:

Saturday, September 14, 2019

  Actual Average Record
Temperature  
Mean Temperature 81 °F 73 °F  
Max Temperature 91 °F 85 °F 96 °F (2016)
Min Temperature 71 °F 61 °F 44 °F (2015)
Degree Days  
Heating Degree Days 0 0  
Month to date heating degree days 0 0  
Since 1 July heating degree days 0 0  
Cooling Degree Days 16 8  
Month to date cooling degree days 229 135  
Year to date cooling degree days 1988 1501  
Growing Degree Days 31 (Base 50)    
Moisture  
Dew Point 70 °F    
Average Humidity 73    
Maximum Humidity 93    
Minimum Humidity 52    
Precipitation  
Precipitation T in 0.12 in 1.63 in (2007)
Month to date precipitation T 1.42  
Year to date precipitation 42.45 36.84  
Sea Level Pressure  
Sea Level Pressure 30.18 in    
Wind  
Wind Speed 2 mph ()    
Max Wind Speed 10 mph    
Max Gust Speed 13 mph    
Visibility 9.8 miles    
Events      
T = Trace of Precipitation, MM = Missing Value Source: Averaged Metar Reports

Daily Weather History Graph

Daily Weather History Graph

Search for Another Location

Airport or City:

Astronomy

Sep. 14, 2019 Rise Set
Actual Time 7:22 AM EDT 7:49 PM EDT
Civil Twilight 6:57 AM EDT 8:14 PM EDT
Nautical Twilight 6:28 AM EDT 8:43 PM EDT
Astronomical Twilight 5:58 AM EDT 9:13 PM EDT
Moon 8:29 PM EDT 7:37 AM EDT
Length of Visible Light 13h 16m
Length of Day
12h 26m
Full, 100% of the Moon is Illuminated
Sep 14
Full
Sep 21
Last Quarter
Sep 28
New
Oct 5
First Quarter
Oct 13
Full

Hourly Weather History & Observations

Time (EDT) Temp. Heat Index Dew Point Humidity Pressure Visibility Wind Dir Wind Speed Gust Speed Precip Events Conditions
12:53 AM 78.1 °F - 69.1 °F 74% 30.18 in 10.0 mi SSE 8.1 mph - 0.00 in   Partly Cloudy
1:53 AM 75.9 °F - 69.1 °F 79% 30.18 in 10.0 mi Calm Calm - N/A   Partly Cloudy
2:53 AM 75.0 °F - 69.1 °F 82% 30.18 in 10.0 mi Calm Calm - N/A   Scattered Clouds
3:53 AM 73.9 °F - 69.1 °F 85% 30.17 in 10.0 mi Calm Calm - N/A   Mostly Cloudy
4:53 AM 73.9 °F - 70.0 °F 87% 30.16 in 10.0 mi Calm Calm - N/A   Partly Cloudy
5:53 AM 72.0 °F - 69.1 °F 91% 30.18 in 10.0 mi WNW 3.5 mph - N/A   Clear
6:53 AM 72.0 °F - 69.1 °F 91% 30.19 in 8.0 mi Calm Calm - N/A   Clear
7:53 AM 71.1 °F - 68.0 °F 90% 30.19 in 7.0 mi Calm Calm - N/A   Clear
8:53 AM 73.9 °F - 69.1 °F 85% 30.22 in 10.0 mi Calm Calm - N/A   Clear
9:53 AM 77.0 °F - 70.0 °F 79% 30.23 in 10.0 mi SSE 4.6 mph - N/A   Scattered Clouds
10:53 AM 79.0 °F - 70.0 °F 74% 30.23 in 10.0 mi Calm Calm - N/A   Scattered Clouds
11:41 AM 82.9 °F 87.5 °F 71.1 °F 67% 30.25 in 10.0 mi NNE 5.8 mph - N/A   Mostly Cloudy
11:53 AM 82.9 °F 87.5 °F 71.1 °F 67% 30.22 in 10.0 mi Variable 3.5 mph - N/A   Mostly Cloudy
12:07 PM 84.0 °F 89.0 °F 71.1 °F 65% 30.25 in 10.0 mi Calm Calm - N/A   Partly Cloudy
12:53 PM 86.0 °F 91.5 °F 71.1 °F 61% 30.20 in 10.0 mi Calm Calm - N/A   Clear
1:53 PM 88.0 °F 92.9 °F 70.0 °F 55% 30.19 in 10.0 mi Calm Calm - N/A   Partly Cloudy
2:53 PM 87.1 °F 92.0 °F 70.0 °F 57% 30.15 in 10.0 mi East 5.8 mph - N/A   Partly Cloudy
3:53 PM 91.0 °F 98.2 °F 72.0 °F 53% 30.13 in 10.0 mi Calm Calm - N/A   Partly Cloudy
4:53 PM 90.0 °F 96.9 °F 72.0 °F 55% 30.12 in 10.0 mi Variable 3.5 mph - N/A   Clear
5:53 PM 89.1 °F 94.1 °F 70.0 °F 53% 30.10 in 10.0 mi South 4.6 mph - N/A   Clear
6:53 PM 87.1 °F 92.8 °F 71.1 °F 59% 30.11 in 10.0 mi ESE 5.8 mph - N/A   Mostly Cloudy
7:53 PM 82.0 °F 86.7 °F 72.0 °F 71% 30.13 in 10.0 mi Calm Calm - 0.00 in   Scattered Clouds
8:53 PM 80.1 °F 83.8 °F 72.0 °F 76% 30.14 in 10.0 mi Calm Calm - N/A   Clear
9:53 PM 79.0 °F - 73.0 °F 82% 30.15 in 10.0 mi Calm Calm - N/A   Mostly Cloudy
10:53 PM 77.0 °F - 72.0 °F 84% 30.15 in 10.0 mi Calm Calm - N/A   Partly Cloudy